Simultaneous Nadir Overpasses (SNOs) Predictions

Prediction of SNOs between GOES-16 and METOP-B Satellite Orbit:

Table of predicted SNOs for the next 14.0 days since TLE Epoch: 9/23/2023
Index Date Time (GOES-16) GOES-16 Lat,Lon METOP-B Lat,Lon Distance(km) Time Diff (sec)
1 09/23/2023 14:15:05 -0.05, -75.22 -0.88, -71.47 427.25 80
2 09/25/2023 02:31:25 0.05, -75.21 -0.12, -76.07 97.79 80
3 09/26/2023 02:13:25 0.05, -75.22 0.95, -71.07 471.77 80
4 09/27/2023 14:29:36 -0.05, -75.24 0.05, -75.64 45.86 80
5 09/30/2023 02:27:56 0.05, -75.26 0.03, -75.24 2.26 80
6 10/02/2023 14:28:48 -0.05, -75.30 -0.19, -74.83 55.25 80
7 10/04/2023 02:47:47 0.05, -75.32 -0.85, -79.42 467.35 80
8 10/05/2023 02:24:27 0.04, -75.33 0.24, -74.42 103.62 80
9 10/06/2023 14:43:18 -0.04, -75.37 0.74, -78.99 412.08 80
